<?xml version="1.0" encoding="UTF-8" standalone="no" ?>
<gpx xmlns="http://www.topografix.com/GPX/1/1" xmlns:xsi="http://www.w3.org/2001/XMLSchema-instance" xsi:schemaLocation="http://www.topografix.com/GPX/1/1 http://www.topografix.com/GPX/1/1/gpx.xsd" version="1.1" creator="VisuGPX - https://www.visugpx.com">
  <metadata>
    <name>GR 470 Prades- Monistrol d'Allier</name>
  </metadata>
  <trk>
    <name><![CDATA[GR470 etape 5-MNT]]></name>
    <trkseg>
      <trkpt lat="45.02849" lon="3.59439">
        <ele>544</ele>
        <time>2012-01-30T11:52:24Z</time>
      </trkpt>
      <trkpt lat="45.02814" lon="3.59407">
        <ele>548.710327</ele>
        <time>2011-11-05T09:14:20Z</time>
      </trkpt>
      <trkpt lat="45.02781" lon="3.59388">
        <ele>549.352173</ele>
        <time>2011-08-24T07:23:59Z</time>
      </trkpt>
      <trkpt lat="45.02754" lon="3.59371">
        <ele>549.450012</ele>
        <time>2011-04-29T16:49:51Z</time>
      </trkpt>
      <trkpt lat="45.02739" lon="3.59373">
        <ele>549.76062</ele>
        <time>2011-04-27T09:29:20Z</time>
      </trkpt>
      <trkpt lat="45.02727" lon="3.59372">
        <ele>549.980713</ele>
        <time>2011-04-22T06:30:56Z</time>
      </trkpt>
      <trkpt lat="45.02714" lon="3.59374">
        <ele>550</ele>
        <time>2011-04-11T20:56:48Z</time>
      </trkpt>
      <trkpt lat="45.02711" lon="3.59375">
        <ele>550</ele>
        <time>2011-04-11T20:56:48Z</time>
      </trkpt>
      <trkpt lat="45.027" lon="3.59387">
        <ele>550</ele>
        <time>2011-04-11T20:56:48Z</time>
      </trkpt>
      <trkpt lat="45.0269" lon="3.59418">
        <ele>550</ele>
        <time>2011-04-11T20:56:48Z</time>
      </trkpt>
      <trkpt lat="45.02681" lon="3.59464">
        <ele>551.223267</ele>
        <time>2011-04-11T20:56:48Z</time>
      </trkpt>
      <trkpt lat="45.0267" lon="3.5949">
        <ele>552.311096</ele>
        <time>2011-04-11T20:56:48Z</time>
      </trkpt>
      <trkpt lat="45.02664" lon="3.59497">
        <ele>552.820496</ele>
        <time>2011-04-11T20:56:48Z</time>
      </trkpt>
      <trkpt lat="45.0267" lon="3.59521">
        <ele>553.871399</ele>
        <time>2011-04-11T20:56:48Z</time>
      </trkpt>
      <trkpt lat="45.02676" lon="3.59539">
        <ele>554.52533</ele>
        <time>2011-04-11T20:56:48Z</time>
      </trkpt>
      <trkpt lat="45.02676" lon="3.59553">
        <ele>555.222839</ele>
        <time>2011-04-11T20:56:48Z</time>
      </trkpt>
      <trkpt lat="45.02672" lon="3.59573">
        <ele>556.800903</ele>
        <time>2011-04-11T20:56:48Z</time>
      </trkpt>
      <trkpt lat="45.02676" lon="3.59604">
        <ele>558.531555</ele>
        <time>2011-04-11T20:56:48Z</time>
      </trkpt>
      <trkpt lat="45.02675" lon="3.59624">
        <ele>558.518372</ele>
        <time>2011-04-11T20:56:48Z</time>
      </trkpt>
      <trkpt lat="45.02666" lon="3.59651">
        <ele>557.960144</ele>
        <time>2011-04-11T20:56:48Z</time>
      </trkpt>
      <trkpt lat="45.02659" lon="3.5966">
        <ele>558.917053</ele>
        <time>2011-04-11T20:56:48Z</time>
      </trkpt>
      <trkpt lat="45.02648" lon="3.59675">
        <ele>560.948792</ele>
        <time>2011-04-11T20:56:48Z</time>
      </trkpt>
      <trkpt lat="45.02631" lon="3.59696">
        <ele>560.951904</ele>
        <time>2011-04-11T20:56:48Z</time>
      </trkpt>
      <trkpt lat="45.0262" lon="3.5971">
        <ele>559.078735</ele>
        <time>2011-04-11T20:56:48Z</time>
      </trkpt>
      <trkpt lat="45.02604" lon="3.59726">
        <ele>557.063171</ele>
        <time>2011-04-11T20:56:48Z</time>
      </trkpt>
      <trkpt lat="45.02588" lon="3.59731">
        <ele>557.52771</ele>
        <time>2011-04-11T20:56:48Z</time>
      </trkpt>
      <trkpt lat="45.02573" lon="3.59732">
        <ele>560.001831</ele>
        <time>2011-04-11T20:56:48Z</time>
      </trkpt>
      <trkpt lat="45.0255" lon="3.59738">
        <ele>562.657227</ele>
        <time>2011-04-11T20:56:48Z</time>
      </trkpt>
      <trkpt lat="45.02534" lon="3.59742">
        <ele>563.800476</ele>
        <time>2011-04-11T20:56:48Z</time>
      </trkpt>
      <trkpt lat="45.02522" lon="3.59745">
        <ele>563.864624</ele>
        <time>2011-04-11T20:56:48Z</time>
      </trkpt>
      <trkpt lat="45.02505" lon="3.59753">
        <ele>562.643555</ele>
        <time>2011-04-11T20:56:48Z</time>
      </trkpt>
      <trkpt lat="45.02485" lon="3.59765">
        <ele>560.251099</ele>
        <time>2011-04-11T20:56:48Z</time>
      </trkpt>
      <trkpt lat="45.02467" lon="3.59776">
        <ele>557.777954</ele>
        <time>2011-04-11T20:56:48Z</time>
      </trkpt>
      <trkpt lat="45.02459" lon="3.5978">
        <ele>557.162109</ele>
        <time>2011-04-11T20:56:48Z</time>
      </trkpt>
      <trkpt lat="45.0244" lon="3.59774">
        <ele>558.248108</ele>
        <time>2011-04-11T20:56:48Z</time>
      </trkpt>
      <trkpt lat="45.02417" lon="3.59764">
        <ele>558.060242</ele>
        <time>2011-04-11T20:56:48Z</time>
      </trkpt>
      <trkpt lat="45.02406" lon="3.5976">
        <ele>557.840454</ele>
        <time>2011-04-11T20:56:48Z</time>
      </trkpt>
      <trkpt lat="45.02393" lon="3.59752">
        <ele>559.239197</ele>
        <time>2011-04-11T20:56:48Z</time>
      </trkpt>
      <trkpt lat="45.02373" lon="3.59749">
        <ele>558.850098</ele>
        <time>2011-04-11T20:56:48Z</time>
      </trkpt>
      <trkpt lat="45.02363" lon="3.59748">
        <ele>558.607056</ele>
        <time>2011-04-11T20:56:48Z</time>
      </trkpt>
      <trkpt lat="45.02342" lon="3.59753">
        <ele>559.920349</ele>
        <time>2011-04-11T20:56:48Z</time>
      </trkpt>
      <trkpt lat="45.02339" lon="3.59758">
        <ele>558.751587</ele>
        <time>2011-04-11T20:56:48Z</time>
      </trkpt>
      <trkpt lat="45.02339" lon="3.59763">
        <ele>557.217529</ele>
        <time>2011-04-11T20:56:48Z</time>
      </trkpt>
      <trkpt lat="45.02334" lon="3.59768">
        <ele>556.394043</ele>
        <time>2011-04-11T20:56:48Z</time>
      </trkpt>
      <trkpt lat="45.02328" lon="3.59767">
        <ele>557.237976</ele>
        <time>2011-04-11T20:56:48Z</time>
      </trkpt>
      <trkpt lat="45.02318" lon="3.5977">
        <ele>557.207336</ele>
        <time>2011-04-11T20:56:48Z</time>
      </trkpt>
      <trkpt lat="45.02314" lon="3.59776">
        <ele>555.84436</ele>
        <time>2011-04-11T20:56:48Z</time>
      </trkpt>
      <trkpt lat="45.02307" lon="3.59778">
        <ele>556.418457</ele>
        <time>2011-04-11T20:56:48Z</time>
      </trkpt>
      <trkpt lat="45.02295" lon="3.5978">
        <ele>558.234863</ele>
        <time>2011-04-11T20:56:48Z</time>
      </trkpt>
      <trkpt lat="45.02284" lon="3.59783">
        <ele>558.850708</ele>
        <time>2011-04-11T20:56:48Z</time>
      </trkpt>
      <trkpt lat="45.02267" lon="3.59791">
        <ele>559.478027</ele>
        <time>2011-04-11T20:56:48Z</time>
      </trkpt>
      <trkpt lat="45.02251" lon="3.59799">
        <ele>560.880127</ele>
        <time>2011-04-11T20:56:48Z</time>
      </trkpt>
      <trkpt lat="45.02242" lon="3.59806">
        <ele>561.315613</ele>
        <time>2011-04-11T20:56:48Z</time>
      </trkpt>
      <trkpt lat="45.02234" lon="3.59817">
        <ele>560.214355</ele>
        <time>2011-04-11T20:56:48Z</time>
      </trkpt>
      <trkpt lat="45.02222" lon="3.59833">
        <ele>558.480469</ele>
        <time>2011-04-11T20:56:48Z</time>
      </trkpt>
      <trkpt lat="45.02207" lon="3.5985">
        <ele>557.598755</ele>
        <time>2011-04-11T20:56:48Z</time>
      </trkpt>
      <trkpt lat="45.022" lon="3.59864">
        <ele>556.111084</ele>
        <time>2011-04-11T20:56:48Z</time>
      </trkpt>
      <trkpt lat="45.02196" lon="3.59881">
        <ele>554.497986</ele>
        <time>2011-04-11T20:56:48Z</time>
      </trkpt>
      <trkpt lat="45.02191" lon="3.59902">
        <ele>552.143127</ele>
        <time>2011-04-11T20:56:48Z</time>
      </trkpt>
      <trkpt lat="45.02185" lon="3.59925">
        <ele>549.504456</ele>
        <time>2011-04-11T20:56:48Z</time>
      </trkpt>
      <trkpt lat="45.02183" lon="3.59944">
        <ele>549.419678</ele>
        <time>2011-04-11T20:56:48Z</time>
      </trkpt>
      <trkpt lat="45.02183" lon="3.59962">
        <ele>549.136108</ele>
        <time>2011-04-11T20:56:48Z</time>
      </trkpt>
      <trkpt lat="45.02185" lon="3.59979">
        <ele>548.812073</ele>
        <time>2011-04-11T20:56:48Z</time>
      </trkpt>
      <trkpt lat="45.02182" lon="3.59994">
        <ele>548.900024</ele>
        <time>2011-04-11T20:56:48Z</time>
      </trkpt>
      <trkpt lat="45.02172" lon="3.59999">
        <ele>549.640015</ele>
        <time>2011-04-11T20:56:48Z</time>
      </trkpt>
      <trkpt lat="45.02161" lon="3.60005">
        <ele>550.599976</ele>
        <time>2011-04-11T20:56:48Z</time>
      </trkpt>
      <trkpt lat="45.02153" lon="3.60008">
        <ele>551.359985</ele>
        <time>2011-04-11T20:56:48Z</time>
      </trkpt>
      <trkpt lat="45.02143" lon="3.60007">
        <ele>552.190002</ele>
        <time>2011-04-11T20:56:48Z</time>
      </trkpt>
      <trkpt lat="45.02138" lon="3.60007">
        <ele>552.669983</ele>
        <time>2011-04-11T20:56:48Z</time>
      </trkpt>
      <trkpt lat="45.02133" lon="3.60003">
        <ele>553.328491</ele>
        <time>2011-04-11T20:56:48Z</time>
      </trkpt>
      <trkpt lat="45.02126" lon="3.59999">
        <ele>555.066467</ele>
        <time>2011-04-11T20:56:48Z</time>
      </trkpt>
      <trkpt lat="45.02115" lon="3.60002">
        <ele>557.690247</ele>
        <time>2011-04-11T20:56:48Z</time>
      </trkpt>
      <trkpt lat="45.02109" lon="3.60009">
        <ele>559.316895</ele>
        <time>2011-04-11T20:56:48Z</time>
      </trkpt>
      <trkpt lat="45.02106" lon="3.60018">
        <ele>560.333923</ele>
        <time>2011-04-11T20:56:48Z</time>
      </trkpt>
      <trkpt lat="45.02107" lon="3.60034">
        <ele>560.386902</ele>
        <time>2011-04-11T20:56:48Z</time>
      </trkpt>
      <trkpt lat="45.02107" lon="3.60048">
        <ele>560.861938</ele>
        <time>2011-04-11T20:56:48Z</time>
      </trkpt>
      <trkpt lat="45.02107" lon="3.60061">
        <ele>562.169006</ele>
        <time>2011-04-11T20:56:48Z</time>
      </trkpt>
      <trkpt lat="45.02107" lon="3.60075">
        <ele>563.529236</ele>
        <time>2011-04-11T20:56:48Z</time>
      </trkpt>
      <trkpt lat="45.02107" lon="3.60097">
        <ele>565.359802</ele>
        <time>2011-04-11T20:56:48Z</time>
      </trkpt>
      <trkpt lat="45.02108" lon="3.6012">
        <ele>566.888611</ele>
        <time>2011-04-11T20:56:48Z</time>
      </trkpt>
      <trkpt lat="45.02112" lon="3.60163">
        <ele>568.558899</ele>
        <time>2011-04-11T20:56:48Z</time>
      </trkpt>
      <trkpt lat="45.02121" lon="3.60203">
        <ele>566.494141</ele>
        <time>2011-04-11T20:56:48Z</time>
      </trkpt>
      <trkpt lat="45.0213" lon="3.60235">
        <ele>564.59729</ele>
        <time>2011-04-11T20:56:48Z</time>
      </trkpt>
      <trkpt lat="45.02138" lon="3.60267">
        <ele>565.068665</ele>
        <time>2011-04-11T20:56:48Z</time>
      </trkpt>
      <trkpt lat="45.02139" lon="3.6029">
        <ele>566.524475</ele>
        <time>2011-04-11T20:56:48Z</time>
      </trkpt>
      <trkpt lat="45.02137" lon="3.60303">
        <ele>568.492981</ele>
        <time>2011-04-11T20:56:48Z</time>
      </trkpt>
      <trkpt lat="45.02164" lon="3.60367">
        <ele>567.98877</ele>
        <time>2011-04-11T20:56:48Z</time>
      </trkpt>
      <trkpt lat="45.02179" lon="3.6042">
        <ele>570.945007</ele>
        <time>2011-04-11T20:56:48Z</time>
      </trkpt>
      <trkpt lat="45.02192" lon="3.60446">
        <ele>570.554749</ele>
        <time>2011-04-11T20:56:48Z</time>
      </trkpt>
      <trkpt lat="45.02199" lon="3.60465">
        <ele>570.801819</ele>
        <time>2011-04-11T20:56:48Z</time>
      </trkpt>
      <trkpt lat="45.02199" lon="3.60485">
        <ele>573.476868</ele>
        <time>2011-04-11T20:56:48Z</time>
      </trkpt>
      <trkpt lat="45.02191" lon="3.60507">
        <ele>579.80896</ele>
        <time>2011-04-11T20:56:48Z</time>
      </trkpt>
      <trkpt lat="45.02185" lon="3.60526">
        <ele>583.899231</ele>
        <time>2011-04-11T20:56:48Z</time>
      </trkpt>
      <trkpt lat="45.02186" lon="3.60536">
        <ele>584.462952</ele>
        <time>2011-04-11T20:56:48Z</time>
      </trkpt>
      <trkpt lat="45.02182" lon="3.60549">
        <ele>587.424438</ele>
        <time>2011-04-11T20:56:48Z</time>
      </trkpt>
      <trkpt lat="45.02174" lon="3.60571">
        <ele>592.384155</ele>
        <time>2011-04-11T20:56:48Z</time>
      </trkpt>
      <trkpt lat="45.02165" lon="3.60585">
        <ele>597.729553</ele>
        <time>2011-04-11T20:56:48Z</time>
      </trkpt>
      <trkpt lat="45.02168" lon="3.60639">
        <ele>601.858521</ele>
        <time>2011-04-11T20:56:48Z</time>
      </trkpt>
      <trkpt lat="45.02162" lon="3.60682">
        <ele>612.581726</ele>
        <time>2011-04-11T20:56:48Z</time>
      </trkpt>
      <trkpt lat="45.02157" lon="3.6072">
        <ele>619.15918</ele>
        <time>2011-04-11T20:56:48Z</time>
      </trkpt>
      <trkpt lat="45.02154" lon="3.6074">
        <ele>622.363037</ele>
        <time>2011-04-11T20:56:48Z</time>
      </trkpt>
      <trkpt lat="45.02155" lon="3.60761">
        <ele>623.394409</ele>
        <time>2011-04-11T20:56:48Z</time>
      </trkpt>
      <trkpt lat="45.02163" lon="3.60796">
        <ele>623.648743</ele>
        <time>2011-04-11T20:56:48Z</time>
      </trkpt>
      <trkpt lat="45.0217" lon="3.60813">
        <ele>622.714905</ele>
        <time>2011-04-11T20:56:48Z</time>
      </trkpt>
      <trkpt lat="45.02171" lon="3.60838">
        <ele>621.290283</ele>
        <time>2011-04-11T20:56:48Z</time>
      </trkpt>
      <trkpt lat="45.02171" lon="3.60859">
        <ele>619.777161</ele>
        <time>2011-04-11T20:56:48Z</time>
      </trkpt>
      <trkpt lat="45.02177" lon="3.6089">
        <ele>613.976807</ele>
        <time>2011-04-11T20:56:48Z</time>
      </trkpt>
      <trkpt lat="45.02179" lon="3.60931">
        <ele>607.742615</ele>
        <time>2011-04-11T20:56:48Z</time>
      </trkpt>
      <trkpt lat="45.02177" lon="3.60985">
        <ele>602.393005</ele>
        <time>2011-04-11T20:56:48Z</time>
      </trkpt>
      <trkpt lat="45.02179" lon="3.6104">
        <ele>599.461121</ele>
        <time>2011-04-11T20:56:48Z</time>
      </trkpt>
      <trkpt lat="45.02171" lon="3.61083">
        <ele>602.575012</ele>
        <time>2011-04-11T20:56:48Z</time>
      </trkpt>
      <trkpt lat="45.02125" lon="3.6115">
        <ele>614.087524</ele>
        <time>2011-04-11T20:56:48Z</time>
      </trkpt>
      <trkpt lat="45.02048" lon="3.612">
        <ele>621.963928</ele>
        <time>2012-01-30T11:52:24Z</time>
      </trkpt>
      <trkpt lat="45.02012" lon="3.61245">
        <ele>615.280029</ele>
        <time>2011-04-11T20:56:48Z</time>
      </trkpt>
      <trkpt lat="45.0197" lon="3.61301">
        <ele>617.922363</ele>
        <time>2011-04-11T20:56:48Z</time>
      </trkpt>
      <trkpt lat="45.01955" lon="3.61338">
        <ele>617.964722</ele>
        <time>2011-04-11T20:56:48Z</time>
      </trkpt>
      <trkpt lat="45.01936" lon="3.61359">
        <ele>621.073181</ele>
        <time>2011-04-11T20:56:48Z</time>
      </trkpt>
      <trkpt lat="45.01884" lon="3.61385">
        <ele>626.5</ele>
        <time>2011-04-11T20:56:48Z</time>
      </trkpt>
      <trkpt lat="45.0186" lon="3.61383">
        <ele>630.940002</ele>
        <time>2011-04-11T20:56:48Z</time>
      </trkpt>
      <trkpt lat="45.01843" lon="3.61353">
        <ele>641.953125</ele>
        <time>2011-04-11T20:56:48Z</time>
      </trkpt>
      <trkpt lat="45.01834" lon="3.61345">
        <ele>645.585999</ele>
        <time>2011-04-11T20:56:48Z</time>
      </trkpt>
      <trkpt lat="45.01812" lon="3.61352">
        <ele>647.5271</ele>
        <time>2011-04-11T20:56:48Z</time>
      </trkpt>
      <trkpt lat="45.01796" lon="3.61349">
        <ele>648.977173</ele>
        <time>2011-04-11T20:56:48Z</time>
      </trkpt>
      <trkpt lat="45.01788" lon="3.61344">
        <ele>649.694824</ele>
        <time>2011-04-11T20:56:48Z</time>
      </trkpt>
      <trkpt lat="45.01782" lon="3.61324">
        <ele>653.941345</ele>
        <time>2011-04-11T20:56:48Z</time>
      </trkpt>
      <trkpt lat="45.01773" lon="3.61285">
        <ele>663.113831</ele>
        <time>2011-04-11T20:56:48Z</time>
      </trkpt>
      <trkpt lat="45.01762" lon="3.61263">
        <ele>667.987915</ele>
        <time>2011-04-11T20:56:48Z</time>
      </trkpt>
      <trkpt lat="45.01758" lon="3.61245">
        <ele>672.139709</ele>
        <time>2011-04-11T20:56:48Z</time>
      </trkpt>
      <trkpt lat="45.01738" lon="3.61238">
        <ele>672.310852</ele>
        <time>2011-04-11T20:56:48Z</time>
      </trkpt>
      <trkpt lat="45.0172" lon="3.61233">
        <ele>672.150452</ele>
        <time>2011-04-11T20:56:48Z</time>
      </trkpt>
      <trkpt lat="45.01701" lon="3.6122">
        <ele>675.811218</ele>
        <time>2011-04-11T20:56:48Z</time>
      </trkpt>
      <trkpt lat="45.0165" lon="3.61189">
        <ele>684.286865</ele>
        <time>2011-04-11T20:56:48Z</time>
      </trkpt>
      <trkpt lat="45.01618" lon="3.61157">
        <ele>689.871399</ele>
        <time>2011-04-11T20:56:48Z</time>
      </trkpt>
      <trkpt lat="45.01611" lon="3.61143">
        <ele>692.366333</ele>
        <time>2011-04-11T20:56:48Z</time>
      </trkpt>
      <trkpt lat="45.01581" lon="3.61133">
        <ele>686.215027</ele>
        <time>2011-04-11T20:56:48Z</time>
      </trkpt>
      <trkpt lat="45.01571" lon="3.61119">
        <ele>686.931274</ele>
        <time>2011-04-11T20:56:48Z</time>
      </trkpt>
      <trkpt lat="45.01563" lon="3.61107">
        <ele>687.466858</ele>
        <time>2011-04-11T20:56:48Z</time>
      </trkpt>
      <trkpt lat="45.01565" lon="3.6109">
        <ele>691.761475</ele>
        <time>2011-04-11T20:56:48Z</time>
      </trkpt>
      <trkpt lat="45.01566" lon="3.61083">
        <ele>693.408142</ele>
        <time>2011-04-11T20:56:48Z</time>
      </trkpt>
      <trkpt lat="45.0156" lon="3.61062">
        <ele>696.382507</ele>
        <time>2011-04-11T20:56:48Z</time>
      </trkpt>
      <trkpt lat="45.01536" lon="3.6105">
        <ele>692.307129</ele>
        <time>2011-04-11T20:56:48Z</time>
      </trkpt>
      <trkpt lat="45.01525" lon="3.6104">
        <ele>692.91864</ele>
        <time>2011-04-11T20:56:48Z</time>
      </trkpt>
      <trkpt lat="45.01515" lon="3.61032">
        <ele>692.955017</ele>
        <time>2011-04-11T20:56:48Z</time>
      </trkpt>
      <trkpt lat="45.01489" lon="3.61019">
        <ele>690.301453</ele>
        <time>2011-04-11T20:56:48Z</time>
      </trkpt>
      <trkpt lat="45.01486" lon="3.61014">
        <ele>690.282776</ele>
        <time>2011-04-11T20:56:48Z</time>
      </trkpt>
      <trkpt lat="45.01476" lon="3.61015">
        <ele>688.348816</ele>
        <time>2011-04-11T20:56:48Z</time>
      </trkpt>
      <trkpt lat="45.01456" lon="3.60996">
        <ele>684.494629</ele>
        <time>2011-04-11T20:56:48Z</time>
      </trkpt>
      <trkpt lat="45.0144" lon="3.60986">
        <ele>680.8526</ele>
        <time>2011-04-11T20:56:48Z</time>
      </trkpt>
      <trkpt lat="45.0136" lon="3.60935">
        <ele>677.134033</ele>
        <time>2011-04-11T20:56:48Z</time>
      </trkpt>
      <trkpt lat="45.01344" lon="3.60927">
        <ele>675.753235</ele>
        <time>2011-04-11T20:56:48Z</time>
      </trkpt>
      <trkpt lat="45.01336" lon="3.60916">
        <ele>676.020569</ele>
        <time>2011-04-11T20:56:48Z</time>
      </trkpt>
      <trkpt lat="45.01331" lon="3.60896">
        <ele>678.644958</ele>
        <time>2011-04-11T20:56:48Z</time>
      </trkpt>
      <trkpt lat="45.0132" lon="3.60883">
        <ele>679.05658</ele>
        <time>2011-04-11T20:56:48Z</time>
      </trkpt>
      <trkpt lat="45.01309" lon="3.60885">
        <ele>677.443481</ele>
        <time>2011-04-11T20:56:48Z</time>
      </trkpt>
      <trkpt lat="45.01298" lon="3.609">
        <ele>674.041443</ele>
        <time>2011-04-11T20:56:48Z</time>
      </trkpt>
      <trkpt lat="45.01288" lon="3.60914">
        <ele>670.444763</ele>
        <time>2011-04-11T20:56:48Z</time>
      </trkpt>
      <trkpt lat="45.01261" lon="3.60919">
        <ele>665.042908</ele>
        <time>2011-04-11T20:56:48Z</time>
      </trkpt>
      <trkpt lat="45.01247" lon="3.60917">
        <ele>662.546387</ele>
        <time>2011-04-11T20:56:48Z</time>
      </trkpt>
      <trkpt lat="45.01232" lon="3.60902">
        <ele>662.90686</ele>
        <time>2011-04-11T20:56:48Z</time>
      </trkpt>
      <trkpt lat="45.01221" lon="3.60892">
        <ele>663.15094</ele>
        <time>2011-04-11T20:56:48Z</time>
      </trkpt>
      <trkpt lat="45.01192" lon="3.60884">
        <ele>659.585815</ele>
        <time>2011-04-11T20:56:48Z</time>
      </trkpt>
      <trkpt lat="45.01171" lon="3.60883">
        <ele>655.830139</ele>
        <time>2011-04-11T20:56:48Z</time>
      </trkpt>
      <trkpt lat="45.01142" lon="3.60878">
        <ele>651.729553</ele>
        <time>2011-04-11T20:56:48Z</time>
      </trkpt>
      <trkpt lat="45.01127" lon="3.6087">
        <ele>651.036743</ele>
        <time>2011-04-11T20:56:48Z</time>
      </trkpt>
      <trkpt lat="45.0112" lon="3.60861">
        <ele>651.289734</ele>
        <time>2011-04-11T20:56:48Z</time>
      </trkpt>
      <trkpt lat="45.01091" lon="3.60823">
        <ele>651.430359</ele>
        <time>2011-04-11T20:56:48Z</time>
      </trkpt>
      <trkpt lat="45.01068" lon="3.60793">
        <ele>652.372498</ele>
        <time>2011-04-11T20:56:48Z</time>
      </trkpt>
      <trkpt lat="45.01055" lon="3.60777">
        <ele>651.909485</ele>
        <time>2011-04-11T20:56:48Z</time>
      </trkpt>
      <trkpt lat="45.01045" lon="3.60759">
        <ele>653.447876</ele>
        <time>2011-04-11T20:56:48Z</time>
      </trkpt>
      <trkpt lat="45.01024" lon="3.60738">
        <ele>653.792236</ele>
        <time>2011-04-11T20:56:48Z</time>
      </trkpt>
      <trkpt lat="45.01012" lon="3.60721">
        <ele>653.388245</ele>
        <time>2011-04-11T20:56:48Z</time>
      </trkpt>
      <trkpt lat="45.00994" lon="3.60693">
        <ele>655.978577</ele>
        <time>2011-04-11T20:56:48Z</time>
      </trkpt>
      <trkpt lat="45.00973" lon="3.60658">
        <ele>658.476501</ele>
        <time>2011-04-11T20:56:48Z</time>
      </trkpt>
      <trkpt lat="45.00968" lon="3.60646">
        <ele>659.710571</ele>
        <time>2011-04-11T20:56:48Z</time>
      </trkpt>
      <trkpt lat="45.00951" lon="3.60645">
        <ele>656.620911</ele>
        <time>2011-04-11T20:56:48Z</time>
      </trkpt>
      <trkpt lat="45.00934" lon="3.60644">
        <ele>655.123962</ele>
        <time>2011-04-11T20:56:48Z</time>
      </trkpt>
      <trkpt lat="45.00925" lon="3.60636">
        <ele>655.716919</ele>
        <time>2011-04-11T20:56:48Z</time>
      </trkpt>
      <trkpt lat="45.00917" lon="3.60631">
        <ele>655.803955</ele>
        <time>2011-04-11T20:56:48Z</time>
      </trkpt>
      <trkpt lat="45.00909" lon="3.60623">
        <ele>656.659729</ele>
        <time>2011-04-11T20:56:48Z</time>
      </trkpt>
      <trkpt lat="45.00907" lon="3.60613">
        <ele>658.302734</ele>
        <time>2011-04-11T20:56:48Z</time>
      </trkpt>
      <trkpt lat="45.00904" lon="3.6061">
        <ele>658.664246</ele>
        <time>2011-04-11T20:56:48Z</time>
      </trkpt>
      <trkpt lat="45.00898" lon="3.60607">
        <ele>658.638</ele>
        <time>2011-04-11T20:56:48Z</time>
      </trkpt>
      <trkpt lat="45.0089" lon="3.60611">
        <ele>657.619995</ele>
        <time>2011-04-11T20:56:48Z</time>
      </trkpt>
      <trkpt lat="45.0086" lon="3.60596">
        <ele>656.94519</ele>
        <time>2011-04-11T20:56:48Z</time>
      </trkpt>
      <trkpt lat="45.00812" lon="3.60579">
        <ele>659.987305</ele>
        <time>2011-04-11T20:56:48Z</time>
      </trkpt>
      <trkpt lat="45.00777" lon="3.60583">
        <ele>666.980225</ele>
        <time>2011-04-11T20:56:48Z</time>
      </trkpt>
      <trkpt lat="45.0074" lon="3.60538">
        <ele>666.447144</ele>
        <time>2011-04-11T20:56:48Z</time>
      </trkpt>
      <trkpt lat="45.00732" lon="3.60538">
        <ele>667.700745</ele>
        <time>2011-04-11T20:56:48Z</time>
      </trkpt>
      <trkpt lat="45.00709" lon="3.60532">
        <ele>668.377625</ele>
        <time>2011-04-11T20:56:48Z</time>
      </trkpt>
      <trkpt lat="45.00696" lon="3.60535">
        <ele>670.743713</ele>
        <time>2011-04-11T20:56:48Z</time>
      </trkpt>
      <trkpt lat="45.00668" lon="3.6055">
        <ele>680.391785</ele>
        <time>2011-04-11T20:56:48Z</time>
      </trkpt>
      <trkpt lat="45.00646" lon="3.60558">
        <ele>685.653625</ele>
        <time>2011-04-11T20:56:48Z</time>
      </trkpt>
      <trkpt lat="45.00624" lon="3.60573">
        <ele>690.832947</ele>
        <time>2011-04-11T20:56:48Z</time>
      </trkpt>
      <trkpt lat="45.0059" lon="3.60589">
        <ele>698.400024</ele>
        <time>2011-04-11T20:56:48Z</time>
      </trkpt>
      <trkpt lat="45.00573" lon="3.6059">
        <ele>700.806274</ele>
        <time>2011-04-11T20:56:48Z</time>
      </trkpt>
      <trkpt lat="45.00557" lon="3.60586">
        <ele>701.643738</ele>
        <time>2011-04-11T20:56:48Z</time>
      </trkpt>
      <trkpt lat="45.00527" lon="3.60572">
        <ele>700.767761</ele>
        <time>2011-04-11T20:56:48Z</time>
      </trkpt>
      <trkpt lat="45.00502" lon="3.60554">
        <ele>698.248657</ele>
        <time>2011-04-11T20:56:48Z</time>
      </trkpt>
      <trkpt lat="45.00477" lon="3.60539">
        <ele>696.922424</ele>
        <time>2011-04-11T20:56:48Z</time>
      </trkpt>
      <trkpt lat="45.00474" lon="3.60544">
        <ele>698.216736</ele>
        <time>2011-04-11T20:56:48Z</time>
      </trkpt>
      <trkpt lat="45.00464" lon="3.60542">
        <ele>698.790894</ele>
        <time>2011-04-11T20:56:48Z</time>
      </trkpt>
      <trkpt lat="45.00458" lon="3.60541">
        <ele>698.919922</ele>
        <time>2011-04-11T20:56:48Z</time>
      </trkpt>
      <trkpt lat="45.00453" lon="3.60554">
        <ele>702.087769</ele>
        <time>2011-04-11T20:56:48Z</time>
      </trkpt>
      <trkpt lat="45.00462" lon="3.60562">
        <ele>703.136597</ele>
        <time>2011-04-11T20:56:48Z</time>
      </trkpt>
      <trkpt lat="45.00462" lon="3.60566">
        <ele>704.179504</ele>
        <time>2011-04-11T20:56:48Z</time>
      </trkpt>
      <trkpt lat="45.00455" lon="3.60569">
        <ele>705.058777</ele>
        <time>2011-04-11T20:56:48Z</time>
      </trkpt>
      <trkpt lat="45.00447" lon="3.60569">
        <ele>705.546265</ele>
        <time>2011-04-11T20:56:48Z</time>
      </trkpt>
      <trkpt lat="45.00442" lon="3.60571">
        <ele>706.324951</ele>
        <time>2011-04-11T20:56:48Z</time>
      </trkpt>
      <trkpt lat="45.00441" lon="3.60577">
        <ele>707.632202</ele>
        <time>2011-04-11T20:56:48Z</time>
      </trkpt>
      <trkpt lat="45.00455" lon="3.6059">
        <ele>709.773743</ele>
        <time>2011-04-11T20:56:48Z</time>
      </trkpt>
      <trkpt lat="45.00467" lon="3.606">
        <ele>711.694214</ele>
        <time>2011-04-11T20:56:48Z</time>
      </trkpt>
      <trkpt lat="45.00478" lon="3.60614">
        <ele>714.388123</ele>
        <time>2011-04-11T20:56:48Z</time>
      </trkpt>
      <trkpt lat="45.00505" lon="3.60628">
        <ele>716.93927</ele>
        <time>2011-04-11T20:56:48Z</time>
      </trkpt>
      <trkpt lat="45.0052" lon="3.60659">
        <ele>724.420593</ele>
        <time>2011-04-11T20:56:48Z</time>
      </trkpt>
      <trkpt lat="45.00526" lon="3.60678">
        <ele>729.645386</ele>
        <time>2011-04-11T20:56:48Z</time>
      </trkpt>
      <trkpt lat="45.00524" lon="3.60698">
        <ele>736.126404</ele>
        <time>2011-04-11T20:56:48Z</time>
      </trkpt>
      <trkpt lat="45.00487" lon="3.60685">
        <ele>735.452271</ele>
        <time>2011-04-11T20:56:48Z</time>
      </trkpt>
      <trkpt lat="45.00458" lon="3.60686">
        <ele>737.185913</ele>
        <time>2011-04-11T20:56:48Z</time>
      </trkpt>
      <trkpt lat="45.00448" lon="3.60692">
        <ele>739.400085</ele>
        <time>2011-04-11T20:56:48Z</time>
      </trkpt>
      <trkpt lat="45.00432" lon="3.6071">
        <ele>745.753723</ele>
        <time>2011-04-11T20:56:48Z</time>
      </trkpt>
      <trkpt lat="45.00456" lon="3.60716">
        <ele>748.000122</ele>
        <time>2011-04-11T20:56:48Z</time>
      </trkpt>
      <trkpt lat="45.00478" lon="3.60725">
        <ele>750.320923</ele>
        <time>2011-04-11T20:56:48Z</time>
      </trkpt>
      <trkpt lat="45.0049" lon="3.60735">
        <ele>752.978394</ele>
        <time>2011-04-11T20:56:48Z</time>
      </trkpt>
      <trkpt lat="45.00505" lon="3.60751">
        <ele>757.384949</ele>
        <time>2011-04-11T20:56:48Z</time>
      </trkpt>
      <trkpt lat="45.00507" lon="3.60759">
        <ele>759.832336</ele>
        <time>2011-04-11T20:56:48Z</time>
      </trkpt>
      <trkpt lat="45.00502" lon="3.60766">
        <ele>762.942932</ele>
        <time>2011-04-11T20:56:48Z</time>
      </trkpt>
      <trkpt lat="45.00474" lon="3.60775">
        <ele>769.482483</ele>
        <time>2011-04-11T20:56:48Z</time>
      </trkpt>
      <trkpt lat="45.00439" lon="3.60812">
        <ele>785.827026</ele>
        <time>2011-04-11T20:56:48Z</time>
      </trkpt>
      <trkpt lat="45.00438" lon="3.6082">
        <ele>788.854004</ele>
        <time>2011-04-11T20:56:48Z</time>
      </trkpt>
      <trkpt lat="45.00452" lon="3.60829">
        <ele>790.663147</ele>
        <time>2011-04-11T20:56:48Z</time>
      </trkpt>
      <trkpt lat="45.00463" lon="3.60831">
        <ele>789.994995</ele>
        <time>2011-04-11T20:56:48Z</time>
      </trkpt>
      <trkpt lat="45.00481" lon="3.60832">
        <ele>788.150024</ele>
        <time>2011-04-11T20:56:48Z</time>
      </trkpt>
      <trkpt lat="45.00497" lon="3.60844">
        <ele>789.837219</ele>
        <time>2011-04-11T20:56:48Z</time>
      </trkpt>
      <trkpt lat="45.00505" lon="3.60853">
        <ele>791.365295</ele>
        <time>2011-04-11T20:56:48Z</time>
      </trkpt>
      <trkpt lat="45.00517" lon="3.60864">
        <ele>791.480896</ele>
        <time>2011-04-11T20:56:48Z</time>
      </trkpt>
      <trkpt lat="45.00522" lon="3.60874">
        <ele>792.597046</ele>
        <time>2011-04-11T20:56:48Z</time>
      </trkpt>
      <trkpt lat="45.00521" lon="3.60879">
        <ele>794.287231</ele>
        <time>2011-04-11T20:56:48Z</time>
      </trkpt>
      <trkpt lat="45.00481" lon="3.60907">
        <ele>807.080139</ele>
        <time>2011-04-11T20:56:48Z</time>
      </trkpt>
      <trkpt lat="45.00461" lon="3.6091">
        <ele>809.01416</ele>
        <time>2011-04-11T20:56:48Z</time>
      </trkpt>
      <trkpt lat="45.00447" lon="3.60915">
        <ele>810.877014</ele>
        <time>2011-04-11T20:56:48Z</time>
      </trkpt>
      <trkpt lat="45.00439" lon="3.60929">
        <ele>814.464355</ele>
        <time>2011-04-11T20:56:48Z</time>
      </trkpt>
      <trkpt lat="45.00427" lon="3.60949">
        <ele>820.013794</ele>
        <time>2011-04-11T20:56:48Z</time>
      </trkpt>
      <trkpt lat="45.00414" lon="3.60975">
        <ele>828.205017</ele>
        <time>2011-04-11T20:56:48Z</time>
      </trkpt>
      <trkpt lat="45.00405" lon="3.60991">
        <ele>833.653442</ele>
        <time>2011-04-11T20:56:48Z</time>
      </trkpt>
      <trkpt lat="45.00381" lon="3.61004">
        <ele>838.361023</ele>
        <time>2011-04-11T20:56:48Z</time>
      </trkpt>
      <trkpt lat="45.00365" lon="3.6101">
        <ele>840.623596</ele>
        <time>2011-04-11T20:56:48Z</time>
      </trkpt>
      <trkpt lat="45.00342" lon="3.61023">
        <ele>847.433411</ele>
        <time>2011-04-11T20:56:48Z</time>
      </trkpt>
      <trkpt lat="45.00317" lon="3.61059">
        <ele>860.903687</ele>
        <time>2011-04-11T20:56:48Z</time>
      </trkpt>
      <trkpt lat="45.00297" lon="3.61079">
        <ele>867.148926</ele>
        <time>2011-04-11T20:56:48Z</time>
      </trkpt>
      <trkpt lat="45.00281" lon="3.61098">
        <ele>871.952576</ele>
        <time>2011-04-11T20:56:48Z</time>
      </trkpt>
      <trkpt lat="45.00258" lon="3.61108">
        <ele>875.688416</ele>
        <time>2011-04-11T20:56:48Z</time>
      </trkpt>
      <trkpt lat="45.00231" lon="3.61127">
        <ele>879.564941</ele>
        <time>2011-04-11T20:56:48Z</time>
      </trkpt>
      <trkpt lat="45.00225" lon="3.61139">
        <ele>881.495239</ele>
        <time>2011-04-11T20:56:48Z</time>
      </trkpt>
      <trkpt lat="45.00214" lon="3.61172">
        <ele>887.449951</ele>
        <time>2011-04-11T20:56:48Z</time>
      </trkpt>
      <trkpt lat="45.00206" lon="3.61193">
        <ele>891.148987</ele>
        <time>2011-04-11T20:56:48Z</time>
      </trkpt>
      <trkpt lat="45.00184" lon="3.61221">
        <ele>895.33313</ele>
        <time>2011-04-11T20:56:48Z</time>
      </trkpt>
      <trkpt lat="45.00169" lon="3.61239">
        <ele>897.832031</ele>
        <time>2011-04-11T20:56:48Z</time>
      </trkpt>
      <trkpt lat="45.00161" lon="3.61273">
        <ele>899.36676</ele>
        <time>2011-04-11T20:56:48Z</time>
      </trkpt>
      <trkpt lat="45.00145" lon="3.61273">
        <ele>899.578491</ele>
        <time>2011-04-11T20:56:48Z</time>
      </trkpt>
      <trkpt lat="45.00127" lon="3.61271">
        <ele>900.696533</ele>
        <time>2011-04-11T20:56:48Z</time>
      </trkpt>
      <trkpt lat="45.00114" lon="3.61259">
        <ele>902.159851</ele>
        <time>2011-04-11T20:56:48Z</time>
      </trkpt>
      <trkpt lat="45.00105" lon="3.61249">
        <ele>903.398621</ele>
        <time>2011-04-11T20:56:48Z</time>
      </trkpt>
      <trkpt lat="45.00062" lon="3.6124">
        <ele>907.252197</ele>
        <time>2011-04-11T20:56:48Z</time>
      </trkpt>
      <trkpt lat="45.00053" lon="3.61242">
        <ele>907.741821</ele>
        <time>2011-04-11T20:56:48Z</time>
      </trkpt>
      <trkpt lat="45.00037" lon="3.61244">
        <ele>908.482483</ele>
        <time>2011-04-11T20:56:48Z</time>
      </trkpt>
      <trkpt lat="45.00023" lon="3.61243">
        <ele>909.460022</ele>
        <time>2011-04-11T20:56:48Z</time>
      </trkpt>
      <trkpt lat="45.00005" lon="3.61236">
        <ele>911.497925</ele>
        <time>2011-04-11T20:56:48Z</time>
      </trkpt>
      <trkpt lat="44.99986" lon="3.61236">
        <ele>913.381104</ele>
        <time>2011-04-11T20:56:48Z</time>
      </trkpt>
      <trkpt lat="44.99974" lon="3.61231">
        <ele>914.880127</ele>
        <time>2011-04-11T20:56:48Z</time>
      </trkpt>
      <trkpt lat="44.9992" lon="3.61201">
        <ele>922.57373</ele>
        <time>2011-04-11T20:56:48Z</time>
      </trkpt>
      <trkpt lat="44.9991" lon="3.61194">
        <ele>924.775024</ele>
        <time>2011-04-11T20:56:48Z</time>
      </trkpt>
      <trkpt lat="44.99887" lon="3.61197">
        <ele>929.169983</ele>
        <time>2011-04-11T20:56:48Z</time>
      </trkpt>
      <trkpt lat="44.99867" lon="3.61189">
        <ele>933.599121</ele>
        <time>2011-04-11T20:56:48Z</time>
      </trkpt>
      <trkpt lat="44.99847" lon="3.61186">
        <ele>937.348572</ele>
        <time>2011-04-11T20:56:48Z</time>
      </trkpt>
      <trkpt lat="44.99836" lon="3.61188">
        <ele>939.221985</ele>
        <time>2011-04-11T20:56:48Z</time>
      </trkpt>
      <trkpt lat="44.99822" lon="3.61191">
        <ele>941.191589</ele>
        <time>2011-04-11T20:56:48Z</time>
      </trkpt>
      <trkpt lat="44.99805" lon="3.61191">
        <ele>943.604065</ele>
        <time>2011-04-11T20:56:48Z</time>
      </trkpt>
      <trkpt lat="44.99781" lon="3.6118">
        <ele>947.759338</ele>
        <time>2011-04-11T20:56:48Z</time>
      </trkpt>
      <trkpt lat="44.99764" lon="3.61164">
        <ele>950.411621</ele>
        <time>2011-04-11T20:56:48Z</time>
      </trkpt>
      <trkpt lat="44.99749" lon="3.61146">
        <ele>953.502563</ele>
        <time>2011-04-11T20:56:48Z</time>
      </trkpt>
      <trkpt lat="44.99739" lon="3.61134">
        <ele>955.790649</ele>
        <time>2011-04-11T20:56:48Z</time>
      </trkpt>
      <trkpt lat="44.99716" lon="3.61133">
        <ele>956.487488</ele>
        <time>2011-04-11T20:56:48Z</time>
      </trkpt>
      <trkpt lat="44.99705" lon="3.61131">
        <ele>956.869995</ele>
        <time>2011-04-11T20:56:48Z</time>
      </trkpt>
      <trkpt lat="44.99688" lon="3.611">
        <ele>959.016907</ele>
        <time>2011-04-11T20:56:48Z</time>
      </trkpt>
      <trkpt lat="44.9968" lon="3.61087">
        <ele>959.77948</ele>
        <time>2011-04-11T20:56:48Z</time>
      </trkpt>
      <trkpt lat="44.99662" lon="3.61073">
        <ele>960.636902</ele>
        <time>2011-04-11T20:56:48Z</time>
      </trkpt>
      <trkpt lat="44.99637" lon="3.61063">
        <ele>962.046936</ele>
        <time>2011-04-11T20:56:48Z</time>
      </trkpt>
      <trkpt lat="44.99607" lon="3.61064">
        <ele>963.867188</ele>
        <time>2011-04-11T20:56:48Z</time>
      </trkpt>
      <trkpt lat="44.99585" lon="3.61078">
        <ele>963.91748</ele>
        <time>2011-04-11T20:56:48Z</time>
      </trkpt>
      <trkpt lat="44.99566" lon="3.61088">
        <ele>963.905029</ele>
        <time>2011-04-11T20:56:48Z</time>
      </trkpt>
      <trkpt lat="44.99549" lon="3.61092">
        <ele>963.943726</ele>
        <time>2011-04-11T20:56:48Z</time>
      </trkpt>
      <trkpt lat="44.99532" lon="3.61094">
        <ele>963.756226</ele>
        <time>2011-04-11T20:56:48Z</time>
      </trkpt>
      <trkpt lat="44.99519" lon="3.61093">
        <ele>963.818726</ele>
        <time>2011-04-11T20:56:48Z</time>
      </trkpt>
      <trkpt lat="44.99508" lon="3.61092">
        <ele>963.782532</ele>
        <time>2011-04-11T20:56:48Z</time>
      </trkpt>
      <trkpt lat="44.99497" lon="3.61086">
        <ele>963.952515</ele>
        <time>2011-04-11T20:56:48Z</time>
      </trkpt>
      <trkpt lat="44.99485" lon="3.61074">
        <ele>964.632507</ele>
        <time>2011-04-11T20:56:48Z</time>
      </trkpt>
      <trkpt lat="44.99468" lon="3.61057">
        <ele>965</ele>
        <time>2011-04-11T20:56:48Z</time>
      </trkpt>
      <trkpt lat="44.99461" lon="3.61049">
        <ele>965.16748</ele>
        <time>2011-04-11T20:56:48Z</time>
      </trkpt>
      <trkpt lat="44.99442" lon="3.61043">
        <ele>965.585022</ele>
        <time>2011-04-11T20:56:48Z</time>
      </trkpt>
      <trkpt lat="44.99429" lon="3.61043">
        <ele>965.88501</ele>
        <time>2011-04-11T20:56:48Z</time>
      </trkpt>
      <trkpt lat="44.99414" lon="3.61045">
        <ele>966.120422</ele>
        <time>2011-04-11T20:56:48Z</time>
      </trkpt>
      <trkpt lat="44.99392" lon="3.6105">
        <ele>966.269531</ele>
        <time>2011-04-11T20:56:48Z</time>
      </trkpt>
      <trkpt lat="44.9938" lon="3.61059">
        <ele>966.109375</ele>
        <time>2011-04-11T20:56:48Z</time>
      </trkpt>
      <trkpt lat="44.99367" lon="3.61069">
        <ele>965.707275</ele>
        <time>2011-04-11T20:56:48Z</time>
      </trkpt>
      <trkpt lat="44.99341" lon="3.61087">
        <ele>965.14801</ele>
        <time>2011-04-11T20:56:48Z</time>
      </trkpt>
      <trkpt lat="44.99284" lon="3.61119">
        <ele>966.264526</ele>
        <time>2011-04-11T20:56:48Z</time>
      </trkpt>
      <trkpt lat="44.99246" lon="3.61143">
        <ele>965.900269</ele>
        <time>2011-04-11T20:56:48Z</time>
      </trkpt>
      <trkpt lat="44.99225" lon="3.61158">
        <ele>965.008301</ele>
        <time>2011-04-11T20:56:48Z</time>
      </trkpt>
      <trkpt lat="44.99215" lon="3.61158">
        <ele>964.833984</ele>
        <time>2011-04-11T20:56:48Z</time>
      </trkpt>
      <trkpt lat="44.99202" lon="3.61154">
        <ele>964.954407</ele>
        <time>2011-04-11T20:56:48Z</time>
      </trkpt>
      <trkpt lat="44.99188" lon="3.61134">
        <ele>967.049561</ele>
        <time>2011-04-11T20:56:48Z</time>
      </trkpt>
      <trkpt lat="44.99173" lon="3.61121">
        <ele>968.520203</ele>
        <time>2011-04-11T20:56:48Z</time>
      </trkpt>
      <trkpt lat="44.99149" lon="3.61112">
        <ele>969.779236</ele>
        <time>2011-04-11T20:56:48Z</time>
      </trkpt>
      <trkpt lat="44.99134" lon="3.61105">
        <ele>970.801819</ele>
        <time>2011-04-11T20:56:48Z</time>
      </trkpt>
      <trkpt lat="44.99123" lon="3.611">
        <ele>971.473511</ele>
        <time>2011-04-11T20:56:48Z</time>
      </trkpt>
      <trkpt lat="44.99102" lon="3.61088">
        <ele>972.651733</ele>
        <time>2011-04-11T20:56:48Z</time>
      </trkpt>
      <trkpt lat="44.99082" lon="3.61074">
        <ele>973.897522</ele>
        <time>2011-04-11T20:56:48Z</time>
      </trkpt>
      <trkpt lat="44.99064" lon="3.61044">
        <ele>975.160095</ele>
        <time>2011-04-11T20:56:48Z</time>
      </trkpt>
      <trkpt lat="44.99047" lon="3.6103">
        <ele>975.239868</ele>
        <time>2011-04-11T20:56:48Z</time>
      </trkpt>
      <trkpt lat="44.99038" lon="3.61038">
        <ele>975.110168</ele>
        <time>2011-04-11T20:56:48Z</time>
      </trkpt>
      <trkpt lat="44.99026" lon="3.61057">
        <ele>974.95166</ele>
        <time>2011-04-11T20:56:48Z</time>
      </trkpt>
      <trkpt lat="44.99009" lon="3.61073">
        <ele>975.297485</ele>
        <time>2011-04-11T20:56:48Z</time>
      </trkpt>
      <trkpt lat="44.98986" lon="3.61084">
        <ele>976.652527</ele>
        <time>2011-04-11T20:56:48Z</time>
      </trkpt>
      <trkpt lat="44.98947" lon="3.61087">
        <ele>979.169983</ele>
        <time>2011-04-11T20:56:48Z</time>
      </trkpt>
      <trkpt lat="44.98898" lon="3.6108">
        <ele>981.563782</ele>
        <time>2011-04-11T20:56:48Z</time>
      </trkpt>
      <trkpt lat="44.98844" lon="3.61067">
        <ele>982.702637</ele>
        <time>2011-04-11T20:56:48Z</time>
      </trkpt>
      <trkpt lat="44.98826" lon="3.61063">
        <ele>982.337036</ele>
        <time>2011-04-11T20:56:48Z</time>
      </trkpt>
      <trkpt lat="44.98791" lon="3.61075">
        <ele>981.363403</ele>
        <time>2011-04-11T20:56:48Z</time>
      </trkpt>
      <trkpt lat="44.98759" lon="3.6109">
        <ele>981.176453</ele>
        <time>2011-04-11T20:56:48Z</time>
      </trkpt>
      <trkpt lat="44.98741" lon="3.61088">
        <ele>981.137573</ele>
        <time>2011-04-11T20:56:48Z</time>
      </trkpt>
      <trkpt lat="44.98718" lon="3.61082">
        <ele>981.642578</ele>
        <time>2011-04-11T20:56:48Z</time>
      </trkpt>
      <trkpt lat="44.98703" lon="3.61078">
        <ele>981.997559</ele>
        <time>2011-04-11T20:56:48Z</time>
      </trkpt>
      <trkpt lat="44.98697" lon="3.61081">
        <ele>982.056213</ele>
        <time>2011-04-11T20:56:48Z</time>
      </trkpt>
      <trkpt lat="44.98691" lon="3.61088">
        <ele>982.144531</ele>
        <time>2011-04-11T20:56:48Z</time>
      </trkpt>
      <trkpt lat="44.98686" lon="3.61108">
        <ele>982.236877</ele>
        <time>2011-04-11T20:56:48Z</time>
      </trkpt>
      <trkpt lat="44.98675" lon="3.61139">
        <ele>980.378723</ele>
        <time>2011-04-11T20:56:48Z</time>
      </trkpt>
      <trkpt lat="44.98662" lon="3.61169">
        <ele>978.367493</ele>
        <time>2011-04-11T20:56:48Z</time>
      </trkpt>
      <trkpt lat="44.98649" lon="3.61199">
        <ele>975.985962</ele>
        <time>2011-04-11T20:56:48Z</time>
      </trkpt>
      <trkpt lat="44.98632" lon="3.61225">
        <ele>973.161072</ele>
        <time>2011-04-11T20:56:48Z</time>
      </trkpt>
      <trkpt lat="44.98608" lon="3.61249">
        <ele>969.180786</ele>
        <time>2011-04-11T20:56:48Z</time>
      </trkpt>
      <trkpt lat="44.98587" lon="3.61266">
        <ele>965.589172</ele>
        <time>2011-04-11T20:56:48Z</time>
      </trkpt>
      <trkpt lat="44.98574" lon="3.61283">
        <ele>962.48999</ele>
        <time>2011-04-11T20:56:48Z</time>
      </trkpt>
      <trkpt lat="44.98548" lon="3.61322">
        <ele>954.3349</ele>
        <time>2011-04-11T20:56:48Z</time>
      </trkpt>
      <trkpt lat="44.9854" lon="3.61341">
        <ele>950.29364</ele>
        <time>2011-04-11T20:56:48Z</time>
      </trkpt>
      <trkpt lat="44.98535" lon="3.6135">
        <ele>947.991638</ele>
        <time>2011-04-11T20:56:48Z</time>
      </trkpt>
      <trkpt lat="44.98533" lon="3.6137">
        <ele>944.348938</ele>
        <time>2011-04-11T20:56:48Z</time>
      </trkpt>
      <trkpt lat="44.98534" lon="3.61394">
        <ele>940.898132</ele>
        <time>2011-04-11T20:56:48Z</time>
      </trkpt>
      <trkpt lat="44.98537" lon="3.61407">
        <ele>939.685425</ele>
        <time>2011-04-11T20:56:48Z</time>
      </trkpt>
      <trkpt lat="44.98542" lon="3.61423">
        <ele>938.506287</ele>
        <time>2011-04-11T20:56:48Z</time>
      </trkpt>
      <trkpt lat="44.98546" lon="3.61438">
        <ele>938.559937</ele>
        <time>2011-04-11T20:56:48Z</time>
      </trkpt>
      <trkpt lat="44.98544" lon="3.61456">
        <ele>936.815796</ele>
        <time>2011-04-11T20:56:48Z</time>
      </trkpt>
      <trkpt lat="44.98541" lon="3.61476">
        <ele>934.653748</ele>
        <time>2011-04-11T20:56:48Z</time>
      </trkpt>
      <trkpt lat="44.9854" lon="3.61499">
        <ele>932.282227</ele>
        <time>2011-04-11T20:56:48Z</time>
      </trkpt>
      <trkpt lat="44.98538" lon="3.61524">
        <ele>929.365967</ele>
        <time>2011-04-11T20:56:48Z</time>
      </trkpt>
      <trkpt lat="44.98538" lon="3.6156">
        <ele>925.068848</ele>
        <time>2011-04-11T20:56:48Z</time>
      </trkpt>
      <trkpt lat="44.98541" lon="3.61569">
        <ele>925.414856</ele>
        <time>2011-04-11T20:56:48Z</time>
      </trkpt>
      <trkpt lat="44.98545" lon="3.6158">
        <ele>925.226685</ele>
        <time>2011-04-11T20:56:48Z</time>
      </trkpt>
      <trkpt lat="44.98542" lon="3.61597">
        <ele>922.067261</ele>
        <time>2011-04-11T20:56:48Z</time>
      </trkpt>
      <trkpt lat="44.98536" lon="3.61607">
        <ele>918.223267</ele>
        <time>2011-04-11T20:56:48Z</time>
      </trkpt>
      <trkpt lat="44.9853" lon="3.61607">
        <ele>915.683411</ele>
        <time>2011-04-11T20:56:48Z</time>
      </trkpt>
      <trkpt lat="44.98511" lon="3.61566">
        <ele>914.514099</ele>
        <time>2011-04-11T20:56:48Z</time>
      </trkpt>
      <trkpt lat="44.98497" lon="3.61561">
        <ele>910.168457</ele>
        <time>2011-04-11T20:56:48Z</time>
      </trkpt>
      <trkpt lat="44.98478" lon="3.61553">
        <ele>905.242188</ele>
        <time>2011-04-11T20:56:48Z</time>
      </trkpt>
      <trkpt lat="44.98463" lon="3.61545">
        <ele>901.307556</ele>
        <time>2011-04-11T20:56:48Z</time>
      </trkpt>
      <trkpt lat="44.98455" lon="3.61542">
        <ele>898.467346</ele>
        <time>2011-04-11T20:56:48Z</time>
      </trkpt>
      <trkpt lat="44.98444" lon="3.61528">
        <ele>896.680969</ele>
        <time>2011-04-11T20:56:48Z</time>
      </trkpt>
      <trkpt lat="44.98438" lon="3.6151">
        <ele>897.387573</ele>
        <time>2011-04-11T20:56:48Z</time>
      </trkpt>
      <trkpt lat="44.98435" lon="3.61496">
        <ele>898.171875</ele>
        <time>2011-04-11T20:56:48Z</time>
      </trkpt>
      <trkpt lat="44.98433" lon="3.61481">
        <ele>900.583984</ele>
        <time>2011-04-11T20:56:48Z</time>
      </trkpt>
      <trkpt lat="44.98425" lon="3.61477">
        <ele>898.601868</ele>
        <time>2011-04-11T20:56:48Z</time>
      </trkpt>
      <trkpt lat="44.98414" lon="3.61468">
        <ele>896.983948</ele>
        <time>2011-04-11T20:56:48Z</time>
      </trkpt>
      <trkpt lat="44.98404" lon="3.61463">
        <ele>894.386353</ele>
        <time>2011-04-11T20:56:48Z</time>
      </trkpt>
      <trkpt lat="44.98395" lon="3.61452">
        <ele>894.241882</ele>
        <time>2011-04-11T20:56:48Z</time>
      </trkpt>
      <trkpt lat="44.98386" lon="3.61447">
        <ele>892.119507</ele>
        <time>2011-04-11T20:56:48Z</time>
      </trkpt>
      <trkpt lat="44.98369" lon="3.61433">
        <ele>890.078735</ele>
        <time>2011-04-11T20:56:48Z</time>
      </trkpt>
      <trkpt lat="44.98364" lon="3.61428">
        <ele>889.275391</ele>
        <time>2011-04-11T20:56:48Z</time>
      </trkpt>
      <trkpt lat="44.98357" lon="3.61426">
        <ele>886.961548</ele>
        <time>2011-04-11T20:56:48Z</time>
      </trkpt>
      <trkpt lat="44.98351" lon="3.61421">
        <ele>885.349854</ele>
        <time>2011-04-11T20:56:48Z</time>
      </trkpt>
      <trkpt lat="44.98345" lon="3.61411">
        <ele>885.26593</ele>
        <time>2011-04-11T20:56:48Z</time>
      </trkpt>
      <trkpt lat="44.98341" lon="3.61407">
        <ele>884.59137</ele>
        <time>2011-04-11T20:56:48Z</time>
      </trkpt>
      <trkpt lat="44.98334" lon="3.61407">
        <ele>886.452332</ele>
        <time>2011-04-11T20:56:48Z</time>
      </trkpt>
      <trkpt lat="44.98328" lon="3.6141">
        <ele>888.575195</ele>
        <time>2011-04-11T20:56:48Z</time>
      </trkpt>
      <trkpt lat="44.98325" lon="3.61416">
        <ele>888.937622</ele>
        <time>2011-04-11T20:56:48Z</time>
      </trkpt>
      <trkpt lat="44.98327" lon="3.61431">
        <ele>887.289063</ele>
        <time>2011-04-11T20:56:48Z</time>
      </trkpt>
      <trkpt lat="44.98335" lon="3.61453">
        <ele>881.78009</ele>
        <time>2011-04-11T20:56:48Z</time>
      </trkpt>
      <trkpt lat="44.9834" lon="3.61468">
        <ele>878.838623</ele>
        <time>2011-04-11T20:56:48Z</time>
      </trkpt>
      <trkpt lat="44.98346" lon="3.61503">
        <ele>880.308533</ele>
        <time>2011-04-11T20:56:48Z</time>
      </trkpt>
      <trkpt lat="44.98348" lon="3.61525">
        <ele>881.903259</ele>
        <time>2011-04-11T20:56:48Z</time>
      </trkpt>
      <trkpt lat="44.98351" lon="3.61535">
        <ele>882.045288</ele>
        <time>2011-04-11T20:56:48Z</time>
      </trkpt>
      <trkpt lat="44.98354" lon="3.61546">
        <ele>881.848572</ele>
        <time>2011-04-11T20:56:48Z</time>
      </trkpt>
      <trkpt lat="44.98358" lon="3.6156">
        <ele>881.851501</ele>
        <time>2011-04-11T20:56:48Z</time>
      </trkpt>
      <trkpt lat="44.9836" lon="3.61592">
        <ele>883.177124</ele>
        <time>2011-04-11T20:56:48Z</time>
      </trkpt>
      <trkpt lat="44.98367" lon="3.61616">
        <ele>881.829407</ele>
        <time>2011-04-11T20:56:48Z</time>
      </trkpt>
      <trkpt lat="44.98371" lon="3.61641">
        <ele>882.299927</ele>
        <time>2011-04-11T20:56:48Z</time>
      </trkpt>
      <trkpt lat="44.98372" lon="3.61667">
        <ele>883.92218</ele>
        <time>2011-04-11T20:56:48Z</time>
      </trkpt>
      <trkpt lat="44.9837" lon="3.61681">
        <ele>882.210693</ele>
        <time>2011-04-11T20:56:48Z</time>
      </trkpt>
      <trkpt lat="44.98362" lon="3.61688">
        <ele>882.176331</ele>
        <time>2011-04-11T20:56:48Z</time>
      </trkpt>
      <trkpt lat="44.98352" lon="3.61695">
        <ele>882.704163</ele>
        <time>2011-04-11T20:56:48Z</time>
      </trkpt>
      <trkpt lat="44.98345" lon="3.61702">
        <ele>882.841064</ele>
        <time>2011-04-11T20:56:48Z</time>
      </trkpt>
      <trkpt lat="44.98331" lon="3.61713">
        <ele>884.159973</ele>
        <time>2011-04-11T20:56:48Z</time>
      </trkpt>
      <trkpt lat="44.98323" lon="3.6173">
        <ele>882.41571</ele>
        <time>2011-04-11T20:56:48Z</time>
      </trkpt>
      <trkpt lat="44.98313" lon="3.6175">
        <ele>879.304871</ele>
        <time>2011-04-11T20:56:48Z</time>
      </trkpt>
      <trkpt lat="44.98305" lon="3.61756">
        <ele>879.511719</ele>
        <time>2011-04-11T20:56:48Z</time>
      </trkpt>
      <trkpt lat="44.98296" lon="3.61757">
        <ele>881.670166</ele>
        <time>2011-04-11T20:56:48Z</time>
      </trkpt>
      <trkpt lat="44.98285" lon="3.61736">
        <ele>891.27002</ele>
        <time>2011-04-11T20:56:48Z</time>
      </trkpt>
      <trkpt lat="44.98276" lon="3.61723">
        <ele>896.736328</ele>
        <time>2011-04-11T20:56:48Z</time>
      </trkpt>
      <trkpt lat="44.98262" lon="3.6171">
        <ele>903.641846</ele>
        <time>2011-04-11T20:56:48Z</time>
      </trkpt>
      <trkpt lat="44.98251" lon="3.61705">
        <ele>907.906738</ele>
        <time>2011-04-11T20:56:48Z</time>
      </trkpt>
      <trkpt lat="44.98225" lon="3.61711">
        <ele>908.542664</ele>
        <time>2011-04-11T20:56:48Z</time>
      </trkpt>
      <trkpt lat="44.98202" lon="3.61731">
        <ele>903.506897</ele>
        <time>2011-04-11T20:56:48Z</time>
      </trkpt>
      <trkpt lat="44.98198" lon="3.61753">
        <ele>899.571045</ele>
        <time>2011-04-11T20:56:48Z</time>
      </trkpt>
      <trkpt lat="44.982" lon="3.61791">
        <ele>890.137512</ele>
        <time>2011-04-11T20:56:48Z</time>
      </trkpt>
      <trkpt lat="44.98204" lon="3.61867">
        <ele>890.058411</ele>
        <time>2011-04-11T20:56:48Z</time>
      </trkpt>
      <trkpt lat="44.98196" lon="3.61962">
        <ele>890.321777</ele>
        <time>2011-04-11T20:56:48Z</time>
      </trkpt>
      <trkpt lat="44.98185" lon="3.62041">
        <ele>879.376526</ele>
        <time>2011-04-11T20:56:48Z</time>
      </trkpt>
      <trkpt lat="44.9818" lon="3.62116">
        <ele>882.367493</ele>
        <time>2011-04-11T20:56:48Z</time>
      </trkpt>
      <trkpt lat="44.98161" lon="3.62177">
        <ele>886.632996</ele>
        <time>2011-04-11T20:56:48Z</time>
      </trkpt>
      <trkpt lat="44.98155" lon="3.62211">
        <ele>884.065369</ele>
        <time>2011-04-11T20:56:48Z</time>
      </trkpt>
      <trkpt lat="44.9815" lon="3.62243">
        <ele>881.547119</ele>
        <time>2011-04-11T20:56:48Z</time>
      </trkpt>
      <trkpt lat="44.98164" lon="3.62275">
        <ele>880.028076</ele>
        <time>2011-04-11T20:56:48Z</time>
      </trkpt>
      <trkpt lat="44.98175" lon="3.62337">
        <ele>883.204651</ele>
        <time>2011-04-11T20:56:48Z</time>
      </trkpt>
      <trkpt lat="44.9818" lon="3.62367">
        <ele>884.553101</ele>
        <time>2011-04-11T20:56:48Z</time>
      </trkpt>
      <trkpt lat="44.98186" lon="3.62398">
        <ele>882.079102</ele>
        <time>2011-04-11T20:56:48Z</time>
      </trkpt>
      <trkpt lat="44.98178" lon="3.62442">
        <ele>884.025818</ele>
        <time>2011-04-11T20:56:48Z</time>
      </trkpt>
      <trkpt lat="44.98171" lon="3.62483">
        <ele>880.904663</ele>
        <time>2011-04-11T20:56:48Z</time>
      </trkpt>
      <trkpt lat="44.98153" lon="3.62547">
        <ele>881.489136</ele>
        <time>2011-04-11T20:56:48Z</time>
      </trkpt>
      <trkpt lat="44.98149" lon="3.62589">
        <ele>879.485596</ele>
        <time>2011-04-11T20:56:48Z</time>
      </trkpt>
      <trkpt lat="44.98139" lon="3.62633">
        <ele>877.336609</ele>
        <time>2011-04-11T20:56:48Z</time>
      </trkpt>
      <trkpt lat="44.98125" lon="3.62679">
        <ele>873.470337</ele>
        <time>2011-04-11T20:56:48Z</time>
      </trkpt>
      <trkpt lat="44.981" lon="3.62723">
        <ele>868.235474</ele>
        <time>2011-04-11T20:56:48Z</time>
      </trkpt>
      <trkpt lat="44.9808" lon="3.62731">
        <ele>868.322083</ele>
        <time>2011-04-11T20:56:48Z</time>
      </trkpt>
      <trkpt lat="44.98065" lon="3.62733">
        <ele>869.203979</ele>
        <time>2011-04-11T20:56:48Z</time>
      </trkpt>
      <trkpt lat="44.98042" lon="3.62735">
        <ele>869.873291</ele>
        <time>2011-04-11T20:56:48Z</time>
      </trkpt>
      <trkpt lat="44.98022" lon="3.62732">
        <ele>870.396301</ele>
        <time>2011-04-11T20:56:48Z</time>
      </trkpt>
      <trkpt lat="44.97996" lon="3.62722">
        <ele>871.659973</ele>
        <time>2011-04-11T20:56:48Z</time>
      </trkpt>
      <trkpt lat="44.97963" lon="3.62702">
        <ele>873.470459</ele>
        <time>2011-04-11T20:56:48Z</time>
      </trkpt>
      <trkpt lat="44.9794" lon="3.62696">
        <ele>872.395874</ele>
        <time>2011-04-11T20:56:48Z</time>
      </trkpt>
      <trkpt lat="44.97833" lon="3.62694">
        <ele>866.097168</ele>
        <time>2011-04-11T20:56:48Z</time>
      </trkpt>
      <trkpt lat="44.97723" lon="3.627">
        <ele>859.325623</ele>
        <time>2011-04-11T20:56:48Z</time>
      </trkpt>
      <trkpt lat="44.97706" lon="3.62701">
        <ele>858.074158</ele>
        <time>2011-04-11T20:56:48Z</time>
      </trkpt>
      <trkpt lat="44.97689" lon="3.62736">
        <ele>850.553711</ele>
        <time>2011-04-11T20:56:48Z</time>
      </trkpt>
      <trkpt lat="44.97672" lon="3.62731">
        <ele>850.909119</ele>
        <time>2011-04-11T20:56:48Z</time>
      </trkpt>
      <trkpt lat="44.97663" lon="3.62727">
        <ele>851.201233</ele>
        <time>2011-04-11T20:56:48Z</time>
      </trkpt>
      <trkpt lat="44.97645" lon="3.62733">
        <ele>849.476135</ele>
        <time>2011-04-11T20:56:48Z</time>
      </trkpt>
      <trkpt lat="44.97634" lon="3.62746">
        <ele>845.81427</ele>
        <time>2011-04-11T20:56:48Z</time>
      </trkpt>
      <trkpt lat="44.97631" lon="3.62766">
        <ele>842.258789</ele>
        <time>2011-04-11T20:56:48Z</time>
      </trkpt>
      <trkpt lat="44.97617" lon="3.62774">
        <ele>839.466003</ele>
        <time>2011-04-11T20:56:48Z</time>
      </trkpt>
      <trkpt lat="44.97588" lon="3.62779">
        <ele>835.549988</ele>
        <time>2011-04-11T20:56:48Z</time>
      </trkpt>
      <trkpt lat="44.97576" lon="3.62785">
        <ele>833.29126</ele>
        <time>2011-04-11T20:56:48Z</time>
      </trkpt>
      <trkpt lat="44.97563" lon="3.62804">
        <ele>829.204834</ele>
        <time>2011-04-11T20:56:48Z</time>
      </trkpt>
      <trkpt lat="44.97552" lon="3.62808">
        <ele>830.070007</ele>
        <time>2011-04-11T20:56:48Z</time>
      </trkpt>
      <trkpt lat="44.97546" lon="3.62838">
        <ele>827.880005</ele>
        <time>2011-04-11T20:56:48Z</time>
      </trkpt>
      <trkpt lat="44.97539" lon="3.62884">
        <ele>820.699097</ele>
        <time>2011-04-11T20:56:48Z</time>
      </trkpt>
      <trkpt lat="44.97525" lon="3.62927">
        <ele>814.200012</ele>
        <time>2011-04-11T20:56:48Z</time>
      </trkpt>
      <trkpt lat="44.97505" lon="3.62972">
        <ele>812.02002</ele>
        <time>2011-04-11T20:56:48Z</time>
      </trkpt>
      <trkpt lat="44.97488" lon="3.62993">
        <ele>815.838501</ele>
        <time>2011-04-11T20:56:48Z</time>
      </trkpt>
      <trkpt lat="44.97489" lon="3.63012">
        <ele>812.438965</ele>
        <time>2011-04-11T20:56:48Z</time>
      </trkpt>
      <trkpt lat="44.97483" lon="3.63057">
        <ele>808.479492</ele>
        <time>2011-04-11T20:56:48Z</time>
      </trkpt>
      <trkpt lat="44.97479" lon="3.63094">
        <ele>805.370239</ele>
        <time>2011-04-11T20:56:48Z</time>
      </trkpt>
      <trkpt lat="44.97463" lon="3.6318">
        <ele>800.455017</ele>
        <time>2011-04-11T20:56:48Z</time>
      </trkpt>
      <trkpt lat="44.9745" lon="3.63241">
        <ele>794.076355</ele>
        <time>2011-04-11T20:56:48Z</time>
      </trkpt>
      <trkpt lat="44.97441" lon="3.63287">
        <ele>787.790222</ele>
        <time>2011-04-11T20:56:48Z</time>
      </trkpt>
      <trkpt lat="44.97429" lon="3.63305">
        <ele>786.687439</ele>
        <time>2011-04-11T20:56:48Z</time>
      </trkpt>
      <trkpt lat="44.97401" lon="3.63331">
        <ele>785.126831</ele>
        <time>2011-04-11T20:56:48Z</time>
      </trkpt>
      <trkpt lat="44.97369" lon="3.63359">
        <ele>779.807861</ele>
        <time>2011-04-11T20:56:48Z</time>
      </trkpt>
      <trkpt lat="44.97355" lon="3.63355">
        <ele>778.5401</ele>
        <time>2011-04-11T20:56:48Z</time>
      </trkpt>
      <trkpt lat="44.97341" lon="3.63351">
        <ele>777.063843</ele>
        <time>2011-04-11T20:56:48Z</time>
      </trkpt>
      <trkpt lat="44.97339" lon="3.63367">
        <ele>775.081055</ele>
        <time>2011-04-11T20:56:48Z</time>
      </trkpt>
      <trkpt lat="44.97342" lon="3.63392">
        <ele>774.086121</ele>
        <time>2011-04-11T20:56:48Z</time>
      </trkpt>
      <trkpt lat="44.97326" lon="3.63446">
        <ele>767.715149</ele>
        <time>2011-04-11T20:56:48Z</time>
      </trkpt>
      <trkpt lat="44.97326" lon="3.63491">
        <ele>765.931274</ele>
        <time>2011-04-11T20:56:48Z</time>
      </trkpt>
      <trkpt lat="44.97309" lon="3.63566">
        <ele>761.352356</ele>
        <time>2011-04-11T20:56:48Z</time>
      </trkpt>
      <trkpt lat="44.97293" lon="3.63634">
        <ele>758.633606</ele>
        <time>2011-04-11T20:56:48Z</time>
      </trkpt>
      <trkpt lat="44.97274" lon="3.63684">
        <ele>756.415283</ele>
        <time>2011-04-11T20:56:48Z</time>
      </trkpt>
      <trkpt lat="44.97257" lon="3.63725">
        <ele>753.772949</ele>
        <time>2011-04-11T20:56:48Z</time>
      </trkpt>
      <trkpt lat="44.97247" lon="3.63742">
        <ele>750.70697</ele>
        <time>2011-04-11T20:56:48Z</time>
      </trkpt>
      <trkpt lat="44.9724" lon="3.63753">
        <ele>746.13092</ele>
        <time>2011-04-11T20:56:48Z</time>
      </trkpt>
      <trkpt lat="44.97232" lon="3.63753">
        <ele>744.246704</ele>
        <time>2011-04-11T20:56:48Z</time>
      </trkpt>
      <trkpt lat="44.97226" lon="3.63756">
        <ele>742.776917</ele>
        <time>2011-04-11T20:56:48Z</time>
      </trkpt>
      <trkpt lat="44.97215" lon="3.6375">
        <ele>743.048889</ele>
        <time>2011-04-11T20:56:48Z</time>
      </trkpt>
      <trkpt lat="44.97205" lon="3.63744">
        <ele>743.097046</ele>
        <time>2011-04-11T20:56:48Z</time>
      </trkpt>
      <trkpt lat="44.97204" lon="3.63755">
        <ele>740.488953</ele>
        <time>2011-04-11T20:56:48Z</time>
      </trkpt>
      <trkpt lat="44.97203" lon="3.63763">
        <ele>738.486816</ele>
        <time>2011-04-11T20:56:48Z</time>
      </trkpt>
      <trkpt lat="44.97195" lon="3.63772">
        <ele>735.96167</ele>
        <time>2011-04-11T20:56:48Z</time>
      </trkpt>
      <trkpt lat="44.97193" lon="3.63775">
        <ele>735.173096</ele>
        <time>2011-04-11T20:56:48Z</time>
      </trkpt>
      <trkpt lat="44.97198" lon="3.63781">
        <ele>734.257874</ele>
        <time>2011-04-11T20:56:48Z</time>
      </trkpt>
      <trkpt lat="44.97203" lon="3.63786">
        <ele>733.239441</ele>
        <time>2011-04-11T20:56:48Z</time>
      </trkpt>
      <trkpt lat="44.97211" lon="3.63782">
        <ele>734.590088</ele>
        <time>2011-04-11T20:56:48Z</time>
      </trkpt>
      <trkpt lat="44.97223" lon="3.6378">
        <ele>735.708618</ele>
        <time>2011-04-11T20:56:48Z</time>
      </trkpt>
      <trkpt lat="44.97234" lon="3.63787">
        <ele>734.619446</ele>
        <time>2011-04-11T20:56:48Z</time>
      </trkpt>
      <trkpt lat="44.97248" lon="3.63801">
        <ele>734.379639</ele>
        <time>2011-04-11T20:56:48Z</time>
      </trkpt>
      <trkpt lat="44.97263" lon="3.63816">
        <ele>731.174622</ele>
        <time>2011-04-11T20:56:48Z</time>
      </trkpt>
      <trkpt lat="44.97279" lon="3.63837">
        <ele>724.45697</ele>
        <time>2011-04-11T20:56:48Z</time>
      </trkpt>
      <trkpt lat="44.97296" lon="3.63864">
        <ele>717.695313</ele>
        <time>2011-04-11T20:56:48Z</time>
      </trkpt>
      <trkpt lat="44.9731" lon="3.63882">
        <ele>715.631104</ele>
        <time>2011-04-11T20:56:48Z</time>
      </trkpt>
      <trkpt lat="44.97324" lon="3.63902">
        <ele>714.021423</ele>
        <time>2011-04-11T20:56:48Z</time>
      </trkpt>
      <trkpt lat="44.97329" lon="3.63928">
        <ele>707.254578</ele>
        <time>2011-04-11T20:56:48Z</time>
      </trkpt>
      <trkpt lat="44.97334" lon="3.63954">
        <ele>700.421997</ele>
        <time>2011-04-11T20:56:48Z</time>
      </trkpt>
      <trkpt lat="44.97335" lon="3.63966">
        <ele>696.777588</ele>
        <time>2011-04-11T20:56:48Z</time>
      </trkpt>
      <trkpt lat="44.97327" lon="3.63964">
        <ele>692.995605</ele>
        <time>2011-04-11T20:56:48Z</time>
      </trkpt>
      <trkpt lat="44.97321" lon="3.63959">
        <ele>691.407776</ele>
        <time>2011-04-11T20:56:48Z</time>
      </trkpt>
      <trkpt lat="44.97316" lon="3.63948">
        <ele>692.977905</ele>
        <time>2011-04-11T20:56:48Z</time>
      </trkpt>
      <trkpt lat="44.97309" lon="3.63931">
        <ele>695.537109</ele>
        <time>2011-04-11T20:56:48Z</time>
      </trkpt>
      <trkpt lat="44.97294" lon="3.63925">
        <ele>690.068359</ele>
        <time>2011-04-11T20:56:48Z</time>
      </trkpt>
      <trkpt lat="44.97272" lon="3.6392">
        <ele>682.25</ele>
        <time>2011-04-11T20:56:48Z</time>
      </trkpt>
      <trkpt lat="44.97245" lon="3.63914">
        <ele>678.460449</ele>
        <time>2011-04-11T20:56:48Z</time>
      </trkpt>
      <trkpt lat="44.97218" lon="3.63909">
        <ele>677.780762</ele>
        <time>2011-04-11T20:56:48Z</time>
      </trkpt>
      <trkpt lat="44.97228" lon="3.63921">
        <ele>672.119995</ele>
        <time>2011-04-11T20:56:48Z</time>
      </trkpt>
      <trkpt lat="44.97266" lon="3.63949">
        <ele>670.692017</ele>
        <time>2011-04-11T20:56:48Z</time>
      </trkpt>
      <trkpt lat="44.97297" lon="3.63983">
        <ele>672.17157</ele>
        <time>2011-04-11T20:56:48Z</time>
      </trkpt>
      <trkpt lat="44.97314" lon="3.64012">
        <ele>669.719971</ele>
        <time>2011-04-11T20:56:48Z</time>
      </trkpt>
      <trkpt lat="44.97323" lon="3.64035">
        <ele>666.009827</ele>
        <time>2011-04-11T20:56:48Z</time>
      </trkpt>
      <trkpt lat="44.97324" lon="3.6405">
        <ele>661.03656</ele>
        <time>2011-04-11T20:56:48Z</time>
      </trkpt>
      <trkpt lat="44.97323" lon="3.64059">
        <ele>657.623657</ele>
        <time>2011-04-11T20:56:48Z</time>
      </trkpt>
      <trkpt lat="44.97315" lon="3.64046">
        <ele>659.263184</ele>
        <time>2011-04-11T20:56:48Z</time>
      </trkpt>
      <trkpt lat="44.97302" lon="3.64036">
        <ele>658.30249</ele>
        <time>2011-04-11T20:56:48Z</time>
      </trkpt>
      <trkpt lat="44.97288" lon="3.64034">
        <ele>653.9375</ele>
        <time>2011-04-11T20:56:48Z</time>
      </trkpt>
      <trkpt lat="44.9727" lon="3.64011">
        <ele>653.265625</ele>
        <time>2011-04-11T20:56:48Z</time>
      </trkpt>
      <trkpt lat="44.97248" lon="3.6399">
        <ele>652.694885</ele>
        <time>2011-04-29T18:28:35Z</time>
      </trkpt>
      <trkpt lat="44.97235" lon="3.63984">
        <ele>650.863342</ele>
        <time>2011-05-09T02:18:37Z</time>
      </trkpt>
      <trkpt lat="44.97232" lon="3.63981">
        <ele>650.903503</ele>
        <time>2011-05-17T10:12:06Z</time>
      </trkpt>
      <trkpt lat="44.97225" lon="3.63981">
        <ele>648.932739</ele>
        <time>2011-05-20T17:30:36Z</time>
      </trkpt>
      <trkpt lat="44.97211" lon="3.63973">
        <ele>647.855896</ele>
        <time>2011-05-30T09:36:38Z</time>
      </trkpt>
      <trkpt lat="44.97185" lon="3.63967">
        <ele>644.254822</ele>
        <time>2011-06-15T00:08:52Z</time>
      </trkpt>
      <trkpt lat="44.97161" lon="3.63967">
        <ele>645.911926</ele>
        <time>2011-06-29T08:08:13Z</time>
      </trkpt>
      <trkpt lat="44.97146" lon="3.63974">
        <ele>641.836792</ele>
        <time>2011-07-08T01:06:44Z</time>
      </trkpt>
      <trkpt lat="44.97089" lon="3.64025">
        <ele>617.336609</ele>
        <time>2011-12-14T09:58:43Z</time>
      </trkpt>
      <trkpt lat="44.97075" lon="3.64034">
        <ele>615.084167</ele>
        <time>2012-01-30T11:52:24Z</time>
      </trkpt>
      <trkpt lat="44.97032" lon="3.64079">
        <ele>608.593811</ele>
        <time>2011-04-11T20:56:48Z</time>
      </trkpt>
      <trkpt lat="44.97006" lon="3.64104">
        <ele>606.025085</ele>
        <time>2011-04-11T20:56:48Z</time>
      </trkpt>
      <trkpt lat="44.96989" lon="3.64121">
        <ele>603.407532</ele>
        <time>2011-04-11T20:56:48Z</time>
      </trkpt>
      <trkpt lat="44.96977" lon="3.64128">
        <ele>602.945007</ele>
        <time>2011-04-11T20:56:48Z</time>
      </trkpt>
      <trkpt lat="44.96959" lon="3.64135">
        <ele>602.622498</ele>
        <time>2011-04-11T20:56:48Z</time>
      </trkpt>
      <trkpt lat="44.9688" lon="3.64155">
        <ele>605.322937</ele>
        <time>2011-04-11T20:56:48Z</time>
      </trkpt>
      <trkpt lat="44.9688" lon="3.64179">
        <ele>604.572998</ele>
        <time>2011-08-01T11:59:51Z</time>
      </trkpt>
      <trkpt lat="44.9689" lon="3.64215">
        <ele>602.792969</ele>
        <time>2012-01-30T11:52:24Z</time>
      </trkpt>
      <trkpt lat="44.96901" lon="3.64284">
        <ele>601.992126</ele>
        <time>2011-04-11T20:56:48Z</time>
      </trkpt>
      <trkpt lat="44.96899" lon="3.64296">
        <ele>602.308838</ele>
        <time>2011-04-11T20:56:48Z</time>
      </trkpt>
      <trkpt lat="44.96896" lon="3.64291">
        <ele>602.667786</ele>
        <time>2011-04-11T20:56:48Z</time>
      </trkpt>
      <trkpt lat="44.96888" lon="3.64289">
        <ele>603.621216</ele>
        <time>2011-04-11T20:56:48Z</time>
      </trkpt>
      <trkpt lat="44.96876" lon="3.64296">
        <ele>604.950317</ele>
        <time>2011-04-11T20:56:48Z</time>
      </trkpt>
      <trkpt lat="44.96867" lon="3.64303">
        <ele>605.812195</ele>
        <time>2011-04-11T20:56:48Z</time>
      </trkpt>
      <trkpt lat="44.96856" lon="3.64308">
        <ele>606.97876</ele>
        <time>2011-04-11T20:56:48Z</time>
      </trkpt>
      <trkpt lat="44.96845" lon="3.64313">
        <ele>608.186279</ele>
        <time>2011-04-11T20:56:48Z</time>
      </trkpt>
      <trkpt lat="44.96841" lon="3.6432">
        <ele>608.44873</ele>
        <time>2011-04-11T20:56:48Z</time>
      </trkpt>
      <trkpt lat="44.96836" lon="3.64326">
        <ele>608.793762</ele>
        <time>2011-04-11T20:56:48Z</time>
      </trkpt>
    </trkseg>
  </trk>
</gpx>